www.pogodaiklimat.ru

Погода и климат >> Архив погоды >> Малайзия >> Малакка


ПОГОДА в Малакке

  • Прогноз погоды в Малакке
  • Монитор погоды в Малакке

АРХИВ ПОГОДЫ в Малакке

Время (UTC), дата Ветер
(напр.,м/с)
 
Видим.   Явления Облачность Т
(С)
Тd
(С)
f
(%)
Тe
(С)
Тes
(С)
Комфортность P
(гПа)
Po
(гПа)
Тmin
(С)
Tmax
(С)
R
(мм)
R24
(мм)
S
(см)
18 11.09 СВ 2 8000 м мгла 9/3 800 м
[Sc Ac As Ci sp]
+25.3 +23.0 87 +34 +34 очень
душно
1012.9 1011.9
21 11.09 В 1 5000 м мгла 9/1 840 м
[Sc Ac As Ci sp]
+23.8 +22.2 91 +31 +31 очень
душно
1012.4 1011.4
00 12.09 В 2 3000 м мгла 9/3 180 м
[Sc Ac As Ci sp]
+24.8 +23.1 90 +33 +33 очень
душно
1014.5 1013.5 +23.5
03 12.09 ЮВ 2 8000 м мгла 9/1 570 м
[Cu hum Ac lent Ci sp]
+30.6 +24.4 70 +43 +51 опасность
перегрева
1015.4 1014.4
06 12.09 Ю 3 9000 м мгла 9/1 600 м
[Cu hum Ac lent Ci sp]
+32.6 +23.8 60 +44 +54 опасность
перегрева
1012.8 1011.8
09 12.09 Ю 3 10 км мгла 9/1 600 м
[Cu hum Ac trans Ci fib]
+31.4 +24.1 65 +43 +46 опасность
перегрева
1010.4 1009.4
12 12.09 Ю 1 9000 м мгла 9/1 800 м
[Sc Ac trans Ci sp]
+29.1 +25.0 79 +42 +42 опасность
перегрева
1011.7 1010.7 +33.1
15 12.09 С 1 6000 м мгла 9/1 840 м
[Sc Ac lent Ci sp]
+27.2 +24.7 86 +39 +39 очень
душно
1013.2 1012.2
18 12.09 СВ 1 5000 м мгла 9/1 900 м
[Sc Ac lent Ci sp]
+25.6 +24.0 91 +35 +35 очень
душно
1012.2 1011.2
21 12.09 штиль 0 5000 м мгла 9/3 840 м
[Sc Ac lent Ci sp]
+25.6 +23.9 90 +35 +35 очень
душно
1012.2 1011.2
00 13.09 штиль 0 2000 м мгла 9/1 1000 м
[Cu hum Ac lent Ci sp]
+25.6 +24.0 91 +35 +36 очень
душно
1013.5 1012.5 +24.7
03 13.09 ЮВ 1 2000 м мгла {туман} ?/? +30.1 +25.4 76 +44 +44 опасность
перегрева
1014.0 1013.0
06 13.09 ЮЗ 3 2000 м мгла {туман} ?/? +31.8 +25.0 67 +45 +45 опасность
перегрева
1011.8 1010.8
09 13.09 ЮЗ 2 3000 м мгла {туман} ?/? +30.9 +25.8 74 +46 +46 опасность
перегрева
1009.8 1008.8
12 13.09 З 2 2500 м мгла {туман} ?/? +29.5 +24.7 75 +42 +42 опасность
перегрева
1010.9 1009.9 +32.2
15 13.09 СЗ 1 1500 м мгла {туман} ?/? +28.9 +25.2 80 +42 +42 опасность
перегрева
1013.1 1012.1
18 13.09 З 1 1000 м зарница {дождь, туман} ?/? +25.3 +22.0 82 +33 +33 очень
душно
1011.8 1010.8 0.2
21 13.09 С 1 3000 м в посл. час гроза {дождь} 9/4 800 м
[Sc Ac lent Cs]
+25.5 +23.4 88 +34 +34 очень
душно
1011.2 1010.2
00 14.09 штиль 0 2500 м слаб. дождь {гроза} 9/3 1000 м
[Sc Ac As Cs]
+25.2 +22.6 86 +33 +34 очень
душно
1013.1 1012.1 +24.8 1
03 14.09 ЮЗ 2 3000 м мгла {туман} ?/? +29.2 +24.9 78 +42 +42 опасность
перегрева
1013.9 1012.9
06 14.09 ЮЗ 3 7000 м мгла 9/3 600 м
[Cu hum Ac As Ci sp]
+30.8 +24.9 71 +44 +52 опасность
перегрева
1011.5 1010.5 0.6
09 14.09 Ю 2 3500 м мгла 9/1 630 м
[Cu hum Ac As Ci sp]
+29.8 +24.8 75 +43 +46 опасность
перегрева
1009.6 1008.6
12 14.09 штиль 0 4000 м мгла 9/1 840 м
[Sc Ac As Ci sp]
+28.1 +24.6 81 +40 +40 очень
душно
1010.5 1009.5 +31.6
15 14.09 В 1 1000 м мгла {туман} ?/? +27.1 +24.6 86 +38 +38 очень
душно
1012.6 1011.6
18 14.09 СВ 1 1000 м мгла {туман} ?/? +25.9 +24.2 90 +36 +36 очень
душно
1010.7 1009.7
21 14.09 СВ 1 1000 м мгла {туман} ?/? +25.0 +23.8 93 +34 +34 очень
душно
1010.0 1009.0
00 15.09 штиль 0 1500 м мгла {туман} ?/? +26.0 +24.3 90 +36 +36 очень
душно
1011.5 1010.5 +25.0 0.6
03 15.09 Ю 3 2000 м мгла 9/4 600 м
[Cu med, cong Ac As Ci sp]
+30.0 +24.7 73 +43 +47 опасность
перегрева
1012.3 1011.3
06 15.09 ЮЗ 3 5000 м мгла 9/4 600 м
[Cu med, cong Ac As Ci sp]
+30.7 +24.0 68 +43 +49 опасность
перегрева
1010.4 1009.4
09 15.09 Ю 1 7000 м мгла 9/3 600 м
[Cu Sc Ac lent Ci fib]
+30.0 +24.3 72 +42 +45 опасность
перегрева
1008.4 1007.4
12 15.09 Ю 1 8000 м мгла 9/1 600 м
[Cu hum Ac lent Ci fib]
+28.3 +24.3 79 +40 +40 очень
душно
1009.5 1008.5 +31.2
15 15.09 штиль 0 8000 м мгла 9/1 900 м
[Sc Ac As Ci sp]
+25.7 +24.0 90 +35 +35 очень
душно
1011.6 1010.6
18 15.09 СВ 1 3000 м мгла 9/1 900 м
[Sc Ac trans Ci sp]
+24.6 +23.3 92 +33 +33 очень
душно
1009.9 1008.9
21 15.09 штиль 0 3000 м мгла 9/3 900 м
[Sc Ac As Ci sp]
+24.1 +23.0 94 +32 +32 очень
душно
1009.5 1008.5
00 16.09 СВ 1 1500 м дымка 9/3 <50 м
[Sc Ac As Ci sp]
+24.6 +23.4 93 +33 +34 очень
душно
1010.8 1009.8 +23.7
03 16.09 ЮВ 2 5000 м мгла 9/1 570 м
[Cu hum Ac lent Ci sp]
+30.3 +25.5 76 +45 +52 опасность
перегрева
1012.0 1011.0
06 16.09 Ю 3 4000 м мгла 9/4 500 м
[Cb calv Ac lent Ci sp]
+30.1 +24.8 73 +43 +49 опасность
перегрева
1009.7 1008.7
09 16.09 Ю 3 2500 м мгла {туман} ?/? +29.7 +24.1 72 +41 +41 опасность
перегрева
1008.0 1007.0
12 16.09 штиль 0 3000 м мгла {туман} ?/? +27.8 +24.3 81 +39 +39 очень
душно
1008.7 1007.7 +30.7
15 16.09 штиль 0 3000 м мгла 9/3 840 м
[Sc Ac lent Ci sp]
+25.5 +23.7 90 +35 +35 очень
душно
1010.8 1009.8
18 16.09 СВ 1 2000 м мгла 9/1 900 м
[Sc Ac lent Ci sp]
+24.6 +23.1 91 +33 +33 очень
душно
1009.9 1008.9
21 16.09 С 1 2000 м зарница 9/4 500 м
[Cb cap Ac lent Ci sp]
+24.2 +22.9 92 +32 +32 очень
душно
1010.1 1009.1
00 17.09 штиль 0 2000 м мгла 9/3 1000 м
[Cb cap Ac lent Ci sp]
+24.6 +23.4 93 +33 +34 очень
душно
1011.7 1010.7 +24.0
03 17.09 ЮВ 3 5000 м мгла {туман} 9/3 600 м
[Cu hum Ac trans Ci fib]
+30.1 +25.1 75 +44 +49 опасность
перегрева
1012.5 1011.5
06 17.09 Ю 3 6000 м мгла ?/? +31.2 +24.9 69 +44 +44 опасность
перегрева
1010.2 1009.2
09 17.09 Ю 3 3000 м мгла ?/? +30.5 +24.8 72 +44 +44 опасность
перегрева
1008.7 1007.7
12 17.09 штиль 0 4000 м мгла 8/1 840 м
[Sc Ac trans Ci sp]
+28.5 +25.0 81 +41 +41 опасность
перегрева
1009.7 1008.7 +31.5
15 17.09 штиль 0 2500 м мгла {туман} ?/? +26.4 +24.4 89 +37 +37 очень
душно
1011.5 1010.5
18 17.09 СВ 2 3000 м мгла {туман} ?/? +26.3 +24.1 88 +37 +37 очень
душно
1010.8 1009.8
21 17.09 СВ 1 2000 м мгла {туман} ?/? +25.6 +23.9 90 +35 +35 очень
душно
1010.3 1009.3
00 18.09 ЮВ 2 3000 м мгла {туман} ?/? +26.5 +24.3 88 +37 +37 очень
душно
1011.9 1010.9 +24.7
03 18.09 ЮВ 3 3000 м мгла 9/3 600 м
[Cu med, cong Ac trans Ci sp]
+30.4 +25.7 76 +45 +50 опасность
перегрева
1012.7 1011.7
06 18.09 Ю 4 2500 м мгла 9/1 630 м
[Cu med, cong Ac trans Ci sp]
+31.6 +25.2 69 +46 +53 опасность
перегрева
1010.6 1009.6
09 18.09 ЮВ 3 2500 м мгла 9/1 660 м
[Cu hum Ac trans Ci sp]
+31.3 +25.4 71 +46 +48 опасность
перегрева
1009.4 1008.4
12 18.09 ЮВ 2 3000 м мгла ?/? +29.3 +25.5 80 +43 +43 опасность
перегрева
1010.4 1009.4 +32.3
15 18.09 В 2 3500 м мгла 9/1 840 м
[Sc Ac trans Ci sp]
+28.3 +23.5 75 +38 +38 очень
душно
1012.6 1011.6

 

Местоположение метеостанции Малакка (Малайзия): широта 2.27 долгота 102.25 высота над уровнем моря 9 м.

В архиве по умолчанию представлена погода в Малакке за последнюю неделю. Архивные данные за месяц целиком и за предыдущие месяцы, начиная с января 2011 года, Вы можете получить, выбрав интересующий диапазон дат из раскрывающегося списка и нажав кнопку "Ввод!".


*Определитесь, кто Вы:
робот инопланетянин человек

Внимание! Время в таблицах - всемирное. Для получения местного времени необходимо прибавить поправку, которая равна 7 ч.

Смотрите также архив погоды в соседних городах и на ближайших метеорологических станциях:

Погода в Куала-Лумпур аэропорту (Малайзия) (79 км)
Погода в Куала-Лумпуре (Малайзия) (122 км)
Погода в Аэропорту Сеная (Малайзия) (173 км)
Погода в Куантане (Малайзия) (199 км)
Погода в Сингапуре (Сингапур) (217 км)
Погода в Пеканбару (Индонезия) (219 км)
Погода в Аэропорту Ханга Надима (Индонезия) (243 км)
Погода на Нагорье Кэмерон (Малайзия) (263 км)
Погода в Ситаване (Малайзия) (277 км)
Погода в Ипохе (Малайзия) (286 км)

Пояснения к столбцам:

Ветер - указаны скорость ветра в м/с - средняя за 10 мин, порывы в срок и между сроками (в фигурных скобках) и направление, откуда дует ветер: С - северный, СВ - северо-восточный, В - восточный, ЮВ - юго-восточный, Ю - южный, ЮЗ - юго-западный, З - западный, СЗ - северо-западный.
Видимость - горизонтальная дальность видимости в метрах или километрах. При видимости от 1 до 10 км при отсутствии осадков обычно наблюдается дымка, при ухудшении видимости до 1 км и менее - туман. В сухую погоду видимость может ухудшаться дымом, пылью или мглою.
Явления - указаны атмосферные явления, наблюдавшиеся в срок или в последний час перед сроком; фигурными скобками обозначены явления, наблюдавшиеся между сроками (за 1-3 часа до срока); квадратными скобками обозначены град или гололедные отложения с указанием их диаметра в мм.
Облачность - указаны через наклонную черту общая и нижняя облачность в баллах и высота нижней границы облаков в метрах; квадратными скобками обозначены формы облаков: Ci - перистые, Cs - перисто-слоистые, Cc - перисто-кучевые, Ac - высококучевые, As - высокослоистые, Sc - слоисто-кучевые, Ns - слоисто-дождевые, Cu - кучевые, Cb - кучево-дождевые. Подробнее классификацию облаков см. в Атласе облаков (PDF).
T - Температура воздуха - температура, измеренная на высоте 2 м над землей.
Td - Температура точки росы - температура, при понижении до которой содержащийся в воздухе водяной пар достигнет насыщения.
f - Относительная влажность воздуха - влажноcть воздуха, измеренная на высоте 2 м над землей.
Te - Эффективная температура - температура, которую ощущает одетый по сезону человек в тени. Характеристика душности погоды. При расчете учитывается влияние влажности воздуха и скорости ветра на теплоощущения человека.
Tes - Эффективная температура на солнце - температура, которую ощущает человек, с поправкой на солнечный нагрев. Характеристика знойности погоды. Зависит от высоты солнца над горизонтом, облачности и скорости ветра. Ночью, в пасмурную погоду, а также при ветре 12 м/с и более поправка равна нулю.
P - Атмосферное давление - приведенное к уровню моря атмосферное давление.
Po - Атмосферное давление - измеренное на уровне метеостанции атмосферное давление.
Tmin - Минимальная температура - минимум температуры воздуха на высоте 2 м над землей.
Tmax - Максимальная температура - максимум температуры воздуха на высоте 2 м над землей.
R - Количество осадков - Количество выпавших осадков за период времени, мм. При наведении курсора мыши на число - период времени, за который выпало указанное количество осадков.
R24 - Количество осадков - Количество выпавших осадков за 24 часа, мм.
S - Снежный покров - Высота снежного покрова, см. При наведении курсора мыши на число - состояние снежного покрова и степень покрытия местности в баллах.